Weather at Ramona Airport

Public forecast

Using degrees Fahrenheit for public forecast. Weather courtesy of forecast.io.

Current aviation weather report (METAR) for Ramona Airport

Report is more than 6 hours old.

Retrieved 2022/09/17 18:53 UTC (19 days ago):

KRNM 171853Z VRB04KT 10SM SCT030 20/14 A2988 RMK AO2 SLP109 T02000144

Closest aviation forecast (TAF) to Ramona Airport

Forecast is more than 12 hours old.

Closest forecast is Miramar Marine Corps Air Station - Mitscher Field, 15.4 nm (28.5 km) SW. Retrieved 2020/04/17 09:18 UTC (2 years ago):

TAF KNKX 171200Z 1709/1809 VRB05KT 9999 SCT030 QNH2992INS TEMPO 1709/1715 BKN010 TEMPO 1719/1801 24010G15KT T12/1710Z T22/1721Z